Guaymas, México

10:32 AM MST en Diciembre 13, 2018 (GMT -0700)
Gen Jose Ma Yanez International

Tiempo Historia de MMGM - Agosto, 2018

Change the Weather History Date:

Viernes, Agosto 10, 2018

  Actual Average Record
Temperature  
Temperatura media 90 ° F -  
Temperatura máxima 99 ° F 94 ° F 104 ° F (1997)
Temperatura mínima 82 ° F 81 ° F 75 ° F (2011)
Cooling Degree Days 26    
Growing Degree Days 40 (Base 50)    
Moisture  
Punto de rocío 78 ° F    
Average Humidity 63    
Maximum Humidity 89    
Minimum Humidity 37    
Precipitación  
Precipitación 0.00 pul - - ()
Presión al nivel del mar  
Presión al nivel del mar 29.87 pul    
Viento  
Velocidad del viento 5 mph ()    
Velocidad máxima del viento 21 mph    
Max Gust Speed -    
Visibilidad 10.0 Millas    
Eventos      
Averages and records for this station are not official NWS values.
T = Trace of Precipitation, MM = Missing Value Source: Averaged Metar Reports

Daily Weather History Graph

Daily Weather History Graph

Search for Another Location

Airport or City:

Astronomía

Aug. 10, 2018 Salida Puesta
Hora real 5:51 AM MST 7:06 PM MST
Crepúsculo civil 5:26 AM MST 7:31 PM MST
Crepúsculo náutico 4:56 AM MST 8:00 PM MST
Crepúsculo astronómico 4:26 AM MST 8:31 PM MST
Luna 4:55 AM MST (8/10) 6:48 PM MST (8/10)
Horas de luz 14h 04m
Horas de luz
13h 15m
Creciente menguante, 1% of the Moon is Illuminated
Ago 10
Creciente menguante
Ago 11
Nueva
Ago 18
Cuarto creciente
Ago 26
Luna llena
Sep 2
Cuarto menguante

Hourly Weather History & Observations

Hora (MST) Temp. Índice de calor Punto de rocío Humedad Presión Visibilidad Wind Dir Velocidad del viento Velocidad de ráfagas Precip Eventos Condiciones
2:00 AM 85 ° F - 77 ° F 72% 29.94 pul - Oeste 2.2 mph - -  
5:00 AM 82 ° F - 76 ° F 77% 29.94 pul - NNE 4.5 mph - -  
6:58 AM 86.0 ° F 104.7 ° F 82.4 ° F 89% 29.89 pul 10.0 mi Sin viento Sin viento - N/A   Muy nublado
7:50 AM 87.8 ° F 108.2 ° F 82.4 ° F 84% 29.90 pul 10.0 mi Sin viento Sin viento - N/A   Muy nublado
8:00 AM 89 ° F - 76 ° F 59% 29.96 pul - Sin viento Sin viento - -  
8:48 AM 91.4 ° F 111.0 ° F 80.6 ° F 71% 29.89 pul 10.0 mi Sin viento Sin viento - N/A   Nubes dispersas
10:41 AM 95.0 ° F 119.6 ° F 82.4 ° F 67% 29.88 pul 10.0 mi Sin viento Sin viento - N/A   Nubes dispersas
11:00 AM 98 ° F - 74 ° F 37% 29.94 pul - NO 4.5 mph - -  
11:40 AM 95.0 ° F 119.6 ° F 82.4 ° F 67% 29.86 pul 10.0 mi SSO 12.7 mph - N/A   Nubes dispersas
12:43 PM 95.0 ° F 115.8 ° F 80.6 ° F 63% 29.84 pul 10.0 mi SSO 17.3 mph - N/A   Nubes dispersas
1:44 PM 93.2 ° F 117.1 ° F 82.4 ° F 71% 29.82 pul 10.0 mi SSO 17.3 mph - N/A   Nubes dispersas
2:00 PM 99 ° F - 76 ° F 39% 29.88 pul - SO 8.9 mph - -  
2:40 PM 91.4 ° F 114.3 ° F 82.4 ° F 75% 29.80 pul 10.0 mi SO 17.3 mph - N/A   Nubes dispersas
3:41 PM 93.2 ° F 113.6 ° F 80.6 ° F 67% 29.79 pul 10.0 mi SO 20.7 mph - N/A   Muy nublado
4:43 PM 95.0 ° F 112.2 ° F 78.8 ° F 59% 29.81 pul 10.0 mi NE 5.8 mph - N/A   Muy nublado
5:00 PM 89 ° F - 68 ° F 41% 29.86 pul - NNO 8.9 mph - -  
5:44 PM 87.8 ° F 95.6 ° F 73.4 ° F 62% 29.78 pul 10.0 mi Sin viento Sin viento - N/A   Muy nublado
6:41 PM 91.4 ° F 102.5 ° F 75.2 ° F 59% 29.81 pul 10.0 mi Sin viento Sin viento - N/A   Muy nublado
8:00 PM 88 ° F - 70 ° F 46% 29.86 pul - ONO 4.5 mph - -  
11:00 PM 85 ° F - 75 ° F 64% 29.94 pul - Sur 6.7 mph - -